Home   Weather   Leoben   Past weeks

Flag for Austria Past Weather in Leoben, Styria, Austria — Yesterday and Last 2 Weeks

Now
48 °F

Partly cloudy.


Feels Like: 45 °F
Forecast: 31 / 40 °F
Wind: 7 mph from Southwest

Location: Zeltweg

Current Time: Feb 23, 2017 at 7:59:08 pm

Latest Report: Feb 23, 2017 at 6:50 pm


Visibility: 25 mi

Pressure: 29.65 "Hg (27.77 "Hg at 540m altitude)

Humidity: 54%

Dew Point: 32 °F

Location of LeobenLocation

Past Weather in Leoben — Graph

°F

Leoben Temperature Yesterday

Maximum temperature yesterday: 59 °F (at 2:20 pm)
Minimum temperature yesterday: 34 °F (at 5:50 am)
Average temperature yesterday: 46 °F

High & Low Weather Summary for the Past Weeks

 TemperatureHumidityPressure
High59 °F (Feb 22, 2:20 pm)100% (Feb 11, 5:50 pm)30.60 "Hg (Feb 11, 5:50 pm)
Low23 °F (Feb 14, 5:50 am)39% (Feb 23, 1:20 pm)29.65 "Hg (Feb 23, 4:20 pm)
Average36 °F77%30.22 "Hg
* Reported Feb 8 5:50 pm — Feb 23 5:50 pm, Leoben, Weather by CustomWeather, © 2017

Note: Actual official high and low records may vary slightly from our data, if they occured in-between our weather recording intervals... More about our weather records

Advertising

Leoben Weather History for the Previous 24 Hours

Scroll right to see more
 ConditionsComfort  
Time TempWeatherWind HumidityBarometerVisibility
5:50 pm
Thu, Feb 23
50 °FPassing clouds.7 mph50%29.65 "Hg25 mi
5:20 pm52 °FScattered clouds.17 mph47%29.65 "Hg31 mi
4:50 pm54 °FScattered clouds.14 mph47%29.65 "Hg31 mi
4:20 pm55 °FScattered clouds.15 mph44%29.65 "Hg31 mi
3:50 pm57 °FScattered clouds.14 mph44%29.68 "Hg31 mi
2:20 pm57 °FBroken clouds.14 mph39%29.71 "Hg31 mi
1:50 pm57 °FBroken clouds.12 mph41%29.74 "Hg31 mi
1:20 pm57 °FPartly sunny.9 mph39%29.77 "Hg25 mi
12:50 pm54 °FPartly sunny.6 mph47%29.77 "Hg25 mi
12:20 pm54 °FPartly sunny.7 mph47%29.80 "Hg25 mi
11:50 am50 °FPartly sunny.10 mph58%29.80 "Hg19 mi
11:20 am43 °FPartly sunny.5 mph81%29.83 "Hg19 mi
10:50 am43 °FPartly sunny.1 mph71%29.83 "Hg19 mi
10:20 am39 °FPartly sunny.2 mph81%29.83 "Hg19 mi
9:50 am37 °FPartly sunny.2 mph87%29.83 "Hg19 mi
9:20 am36 °FPartly sunny.1 mph87%29.83 "Hg19 mi
8:50 am36 °FPartly sunny.3 mph87%29.83 "Hg19 mi
8:20 am36 °FBroken clouds.2 mph87%29.83 "Hg19 mi
7:50 am34 °FPartly sunny.1 mph93%29.83 "Hg19 mi
7:20 am34 °FPartly sunny.2 mph87%29.83 "Hg19 mi
6:50 am34 °FPassing clouds.5 mph93%29.80 "Hg12 mi
5:50 am36 °FPassing clouds.1 mph87%29.80 "Hg9 mi
4:50 am36 °FPassing clouds.3 mph87%29.80 "Hg6 mi
3:50 am36 °FPassing clouds.1 mph87%29.80 "Hg6 mi
12:50 am37 °FPassing clouds.1 mph87%29.83 "Hg6 mi
9:50 pm
Wed, Feb 22
41 °FPassing clouds.2 mph76%29.83 "Hg6 mi
7:50 pm45 °FPassing clouds.2 mph71%29.83 "Hg6 mi
Weather by CustomWeather, © 2017

See weather overviewHow to use our weather pages